Regional Weather Roundup
Issued by NWS

Home | Current Version | Previous Version | Text Only | Print | Product List | Glossary On
Versions: 1 2 3 4 5 6 7 8 9 10 11 12 13 14 15 16 17 18 19 20 21 22 23 24 25 26 27 28
000
ASPQ40 PGUM 180312
RWRPQ
WEATHER ROUNDUP FOR THE MARIANAS AND MICRONESIA
NATIONAL WEATHER SERVICE TIYAN GU
100 PM CHST WED JAN 18 2017

GUZ001>004-180400-
MARIANA ISLANDS-

CITY           SKY/WX    TMP DP  RH WIND       PRES   REMARKS
GUAM AIRPORT   PTSUNNY   82  77  83 NE25      29.97F HX  91
ANDERSEN AFB   PTSUNNY   81  75  83 NE22      29.98F
ROTA AIRPORT   CLOUDY    77  73  88 NE15G24   30.00F
TINIAN AP      PTSUNNY   84  73  70 NE20      29.98F HX  91
SAIPAN AP      PTSUNNY   82  73  74 NE20G32   29.99F

$$

PMZ161-180400-
REPUBLIC OF PALAU-

CITY           SKY/WX    TMP DP  RH WIND       PRES   REMARKS
KOROR AP       CLOUDY    84  81  89 E10G18    29.89F HX  98
KOROR WSO      CLOUDY    88  77  70 E6        29.90F HX 100

$$

PMZ171>174-180400-
FEDERATED STATES OF MICRONESIA-

CITY           SKY/WX    TMP DP  RH WIND       PRES   REMARKS
YAP AIRPORT    NOT AVBL
CHUUK AP       PTSUNNY   86  82  89 NE9       29.86F HX 105
POHNPEI AP     PTSUNNY   88  79  74 NE17      29.84F HX 102
POHNPEI WSO    PTSUNNY   84  77  79 NE10      29.87F HX  94
KOSRAE AP      NOT AVBL

$$

PMZ181-180400-
REPUBLIC OF THE MARSHALL ISLANDS-

CITY           SKY/WX    TMP DP  RH WIND       PRES   REMARKS
KWAJALEIN AP   SUNNY     86  70  58 NE14      29.84F HX  90
MAJURO AP      NOT AVBL
MAJURO WSO     NOT AVBL

$$





USA.gov is the U.S. government's official web portal to all federal, state and local government web resources and services.